IMAGE

导读

IMAGE卫星,全称磁顶层到极光全球探测图像仪,由美国于2000年3月25日发射升空,核心任务是研究地磁圈对太阳风的相互作用。这颗卫星在2005年12月因断路器故障与地面失联,失踪12年后被加拿大业余天文爱好者意外发现,NASA随后确认其身份并尝试恢复通信,成为航天史上一段传奇。

Basic Information
目录编号:
26113
目录名称:
IMAGE
国际标识:
2000-017A
轨道中心:
EARTH
卫星名称:
IMAGE
卫星全名:
--
卫星状态:
在轨 (已飞行9607 天)
发射日期:
2000-03-25 UTC
国别 :
美国 (US)
星等 :
--
Orbit Information
数据来源 国际轨道数据
星历时间: 2026-07-10T17:33:23+0800
4天前
查看轨道信息
半长轴: 29811.382km
偏心率: 0.7416054
轨道倾角: 94.247°
近地点辐角 285.181°
升交点赤经 315.676°
平近点角 9.743°
近地点: 1324.963km
远地点: 45541.527km
周期: 853.754分钟
每日圈数: 1.686668
Detailed Information
使用方式:
暂无
2D Orbit Map
3D Orbit Map
Orbit Altitude Analysis Chart
Orbit Inclination Analysis Chart
Orbit Comprehensive Analysis Chart
View Comprehensive Chart